Overview Statistics Trail Chart Weather Telemetry Raw packets
 

This is the latest recevied weather packets stored in our database for station/object PP5CFL-13. If no packets are shown the sender has not sent any weather packets the latest 10 day(s).

<< 41 42 43 44 45 46 47 >>
Time Temp. Humidity Pressure Rain* Wind** Luminosity Snow
1788384759 21.67° C 59% 1022.8 hPa - - - -
1788384459 21.67° C 58% 1022.7 hPa - - - -
1788384159 21.67° C 57% 1022.9 hPa - - - -
1788383859 21.67° C 54% 1022.9 hPa - - - -
1788383559 21.67° C 53% 1023 hPa - - - -
1788383259 21.67° C 53% 1022.9 hPa - - - -
1788382959 21.67° C 56% 1023 hPa - - - -
1788382659 21.67° C 55% 1022.9 hPa - - - -
1788382359 21.67° C 56% 1022.9 hPa - - - -
1788382059 21.67° C 55% 1022.9 hPa - - - -
1788381759 21.67° C 54% 1023 hPa - - - -
1788381459 21.67° C 55% 1023.1 hPa - - - -
1788381159 21.67° C 55% 1023 hPa - - - -
1788380859 22.22° C 51% 1022.7 hPa - - - -
1788380559 22.22° C 50% 1022.8 hPa - - - -
1788380259 22.22° C 51% 1022.8 hPa - - - -
1788379959 22.22° C 51% 1022.8 hPa - - - -
1788379659 21.67° C 54% 1022.9 hPa - - - -
1788379359 21.67° C 54% 1023 hPa - - - -
1788379059 21.67° C 54% 1023 hPa - - - -
1788378759 21.67° C 54% 1022.9 hPa - - - -
1788378459 21.67° C 54% 1022.8 hPa - - - -
1788378159 21.67° C 52% 1022.8 hPa - - - -
1788377859 21.67° C 53% 1022.8 hPa - - - -
1788377559 21.67° C 54% 1022.7 hPa - - - -

* Rain since midnight (hover to see other rain measurements)
** Current wind speed in m/s (hover to see current wind gust speed)